Regional Weather Roundup
Issued by NWS

Home | Current Version | Previous Version | Graphics & Text | Print | Product List | Glossary Off
Versions: 1 2 3 4 5 6 7 8 9 10 11 12 13 14 15 16 17 18 19 20 21 22 23 24 25 26 27 28 29 30 31 32 33 34 35 36 37 38 39 40 41 42 43 44 45 46 47 48 49 50

000
ASUS43 KLSX 231907
RWRMO

WEATHER SUMMARY FOR MISSOURI
NATIONAL WEATHER SERVICE SPRINGFIELD MO
200 PM CDT SAT MAY 23 2015

NOTE: "FAIR" INDICATES FEW OR NO CLOUDS BELOW 12,000 FEET WITH NO
       SIGNIFICANT WEATHER AND/OR OBSTRUCTIONS TO VISIBILITY.
       CURRENT SKY AND/OR WEATHER CONDITIONS ARE NOT AVAILABLE FOR
       CHILLICOTHE AND FARMINGTON.

MOZ001>031-035>038-043-044-053-054-232000-
...NORTHERN AND WESTERN MISSOURI...

CITY           SKY/WX    TMP DP  RH WIND       PRES   REMARKS
KANSAS CTY INT CLOUDY    65  58  78 S10       30.17F
KANSAS C DTWN  CLOUDY    68  58  70 SE6       30.16F
LEE`S SUMMIT   CLOUDY    66  58  75 SE8       30.18F
ST JOSEPH      CLOUDY    67  58  72 SE10      30.17F
CHILLICOTHE      N/A     72  57  59 SE10G17   30.20F
KIRKSVILLE     PTSUNNY   72  55  55 S12       30.23F

$$
MOZ066>068-077>081-088>096-101>105-232000-
...SOUTHWEST MISSOURI...

CITY           SKY/WX    TMP DP  RH WIND       PRES   REMARKS
SPRINGFIELD    CLOUDY    69  58  67 SE15      30.21F
JOPLIN         CLOUDY    69  62  78 SE8       30.15F

$$
MOZ032>034-039>042-045>050-055>058-069>072-232000-
...CENTRAL MISSOURI...

CITY           SKY/WX    TMP DP  RH WIND       PRES   REMARKS
COLUMBIA       CLOUDY    70  54  56 S9        30.24F
JEFFERSON CITY CLOUDY    72  52  49 SE16      30.23F
ROLLA          PTSUNNY   70  54  56 S10       30.24F
SEDALIA        CLOUDY    68  56  65 SE14      30.22F
WHITEMAN AFB   CLOUDY    68  57  68 SE10G17   30.19F
WARRENSBURG    CLOUDY    68  57  68 SE12G18   30.19F
OSAGE BEACH    CLOUDY    66  55  68 S8        30.25F

$$
MOZ051-052-059>065-232000-
...EAST CENTRAL MISSOURI...

CITY           SKY/WX    TMP DP  RH WIND       PRES   REMARKS
ST LOUIS INTL  PTSUNNY   78  48  34 S12G20    30.27F
SPIRIT OF STL  PTSUNNY  N/A N/A N/A S8        30.25F
ST CHARLES     MOSUNNY   78  49  35 S14G20    30.25F

$$
MOZ072>076-082>087-097>100-106>115-232000-
...SOUTH CENTRAL AND SOUTHEAST MISSOURI...

CITY           SKY/WX    TMP DP  RH WIND       PRES   REMARKS
CAPE GIRARDEAU MOSUNNY   76  49  38 VRB3      30.27F
FARMINGTON     MOSUNNY   75  54  46 SE9       30.32F
POPLAR BLUFF   PTSUNNY   75  51  43 SE7       30.26F
WEST PLAINS    CLOUDY    67  55  65 SE8       30.27F

$$


USA.gov is the U.S. government's official web portal to all federal, state and local government web resources and services.